Date,TemperatureHighF,TemperatureAvgF,TemperatureLowF,DewpointHighF,DewpointAvgF,DewpointLowF,HumidityHigh,HumidityAvg,HumidityLow,PressureMaxIn,PressureMinIn,WindSpeedMaxMPH,WindSpeedAvgMPH,GustSpeedMaxMPH,PrecipitationSumIn
2013-9-1,85.0,75.3,69.0,72.0,68.5,63.0,92,80,63,29.79,29.71,4,1,11,0.32
2013-9-2,83.0,70.8,62.0,64.0,60.2,55.0,88,71,49,29.94,29.78,4,1,10,0.00
2013-9-3,77.0,62.8,53.0,60.0,55.3,51.0,94,79,50,30.05,29.94,3,0,8,0.00
2013-9-4,84.0,68.2,52.0,63.0,56.3,49.0,93,69,40,30.14,30.03,3,1,8,0.00
2013-9-5,85.0,71.0,60.0,69.0,61.3,54.0,86,72,53,30.17,30.09,4,1,8,0.00
2013-9-6,86.0,70.3,55.0,66.0,59.7,52.0,90,71,50,30.16,30.00,5,1,13,0.00
2013-9-7,87.0,72.3,60.0,68.0,60.9,-99.9,91,72,45,30.01,29.87,7,2,13,0.01
2013-9-8,86.0,75.5,68.0,72.0,68.0,64.0,92,78,59,29.95,29.85,5,1,10,0.12
2013-9-9,94.0,79.7,66.0,74.0,70.3,64.0,94,75,50,29.90,29.81,6,3,15,0.08
2013-9-10,95.0,81.5,70.0,71.0,66.8,63.0,85,64,37,30.01,29.89,7,3,16,0.00
2013-9-11,93.0,79.8,70.0,69.0,66.5,64.0,88,66,38,30.04,29.96,6,2,15,0.00
2013-9-12,83.0,72.3,59.0,69.0,59.9,47.0,91,69,32,30.03,29.93,6,2,18,0.11
2013-9-13,69.0,58.9,46.0,51.0,46.1,41.0,90,65,36,30.15,30.03,6,2,12,0.01
2013-9-14,72.0,57.1,38.0,47.0,40.9,-99.9,93,61,34,30.18,30.03,4,1,9,0.00
2013-9-15,68.0,59.8,55.0,59.0,51.6,45.0,91,75,59,30.11,29.96,6,2,13,0.17
2013-9-16,70.0,59.5,49.0,56.0,51.7,44.0,93,77,53,30.29,30.11,7,3,15,0.06
2013-9-17,75.0,58.0,43.0,57.0,50.3,41.0,94,78,51,30.29,30.08,6,1,13,0.00
2013-9-18,75.0,64.9,60.0,68.0,56.5,53.0,83,74,69,30.09,29.92,6,2,12,0.00
2013-9-19,92.0,79.3,70.0,70.0,68.2,66.0,89,71,46,29.93,29.76,9,4,19,0.00
2013-9-20,78.0,66.6,56.0,70.0,60.5,50.0,93,81,61,29.85,29.78,6,2,17,0.25
2013-9-21,70.0,57.7,48.0,53.0,46.9,-99.9,90,71,44,29.92,29.83,6,1,13,0.01
2013-9-22,71.0,55.0,38.0,50.0,45.1,36.0,94,73,42,30.03,29.92,3,1,9,0.01
2013-9-23,75.0,56.7,40.0,51.0,44.1,38.0,93,68,33,30.07,29.96,4,1,10,0.00
2013-9-24,77.0,63.6,41.0,56.0,50.8,39.0,92,65,43,29.99,29.85,4,2,10,0.00
2013-9-25,80.0,62.7,48.0,58.0,51.8,45.0,90,70,45,29.91,29.84,6,1,12,0.00
2013-9-26,82.0,63.3,46.0,56.0,50.1,44.0,93,68,34,30.02,29.91,6,1,10,0.00
2013-9-27,82.0,74.5,46.0,55.0,49.8,43.0,91,45,30,30.12,30.01,6,3,14,0.00
2013-9-28,82.0,68.3,51.0,63.0,54.2,-99.9,93,65,43,30.04,29.88,12,5,23,0.02
2013-9-29,71.0,60.5,47.0,63.0,50.3,43.0,93,72,39,30.03,29.92,4,2,10,0.28
2013-9-30,76.0,60.9,41.0,58.0,50.0,39.0,94,71,43,29.98,29.86,6,2,13,0.01